X  CloseLight rain tonight and tomorrow morning.
Conditions Temp Feels Precipitation Windspeed Direction UV index Pressure
11:00 cloudy Overcast 5° 0° 0.01 mm 3% 9-14 m/s SW SW - 1019,7
12:00 cloudy Overcast 6° 1° 0.01 mm 4% 9-14 m/s SW SW - 1019,2
13:00 cloudy Overcast 6° 2° 0.01 mm 4% 9-14 m/s SW SW - 1018,5
14:00 cloudy Overcast 6° 2° 0.01 mm 5% 9-14 m/s SW SW - 1017,6
15:00 cloudy Overcast 6° 2° 0.02 mm 5% 9-14 m/s SW SW - 1016,7
16:00 cloudy Overcast 6° 1° 0.03 mm 4% 9-15 m/s SW SW - 1015,9
17:00 cloudy Overcast 6° 1° 0.03 mm 3% 10-15 m/s SW SW - 1015,4
18:00 cloudy Overcast 6° 1° 0.03 mm 3% 10-15 m/s SW SW - 1014,8
19:00 cloudy Overcast 6° 1° 0.03 mm 2% 10-15 m/s SW SW - 1014,2
20:00 cloudy Overcast 6° 1° 0.05 mm 2% 11-16 m/s SW SW - 1013,4
21:00 cloudy Overcast 6° 1° 0.06 mm 2% 11-16 m/s SW SW - 1012,5
22:00 cloudy Overcast 7° 1° 0.08 mm 2% 11-17 m/s SW SW - 1011,7
23:00 cloudy Overcast 7° 2° 0.1 mm 3% 11-17 m/s SW SW - 1010,9
00:00 cloudy Overcast 7° 2° 0.13 mm 4% 11-17 m/s SW SW - 1010,2
01:00 wind Windy and Overcast 8° 3° 0.15 mm 16% 11-18 m/s SW SW - 1009,4
02:00 rain Possible Drizzle and Windy 8° 3° 0.17 mm 33% 11-18 m/s SW SW - 1008,4
03:00 rain Possible Drizzle and Windy 8° 3° 0.23 mm 50% 11-18 m/s SW SW - 1007,1
04:00 rain Possible Drizzle and Windy 8° 4° 0.3 mm 57% 11-18 m/s SW SW - 1006,2
05:00 rain Possible Drizzle 9° 4° 0.37 mm 61% 10-17 m/s WSW WSW - 1005,7
06:00 rain Possible Light Rain 9° 5° 0.43 mm 65% 10-16 m/s WSW WSW - 1005,4
07:00 rain Light Rain 9° 5° 0.47 mm 72% 9-15 m/s WSW WSW - 1005,3
08:00 rain Light Rain 9° 5° 0.48 mm 73% 8-14 m/s SSE SSE - 1005,4
09:00 rain Light Rain 8° 5° 0.47 mm 67% 7-12 m/s NE NE - 1005,7
10:00 rain Possible Light Rain 8° 4° 0.42 mm 60% 7-11 m/s NW NW - 1006,2
11:00 rain Possible Drizzle 7° 3° 0.29 mm 35% 6-10 m/s WNW WNW - 1006,9
12:00 cloudy Overcast 7° 3° 0.16 mm 18% 6-10 m/s NW NW - 1007,7
13:00 cloudy Overcast 7° 3° 0.09 mm 12% 6-11 m/s NW NW - 1008,5
14:00 partly-cloudy-day Mostly Cloudy 6° 2° 0.04 mm 11% 6-11 m/s NW NW - 1009,2
15:00 partly-cloudy-day Mostly Cloudy 6° 2° 0.01 mm 10% 6-12 m/s NW NW - 1009,8
16:00 partly-cloudy-night Partly Cloudy 6° 2° - 7-12 m/s NW NW - 1010,4
17:00 partly-cloudy-night Partly Cloudy 6° 1° - 7-13 m/s WNW WNW - 1011,2
18:00 partly-cloudy-night Partly Cloudy 6° 1° - 8-13 m/s WNW WNW - 1011,9
19:00 partly-cloudy-night Partly Cloudy 6° 1° - 8-14 m/s WNW WNW - 1012,2
20:00 partly-cloudy-night Partly Cloudy 6° 1° - 9-15 m/s NW NW - 1012,2
21:00 partly-cloudy-night Partly Cloudy 6° 1° - 10-16 m/s WSW WSW - 1011,6
22:00 partly-cloudy-night Partly Cloudy 6° 1° - 11-17 m/s West West - 1011,2
23:00 wind Windy and Partly Cloudy 6° 1° - 12-18 m/s ENE ENE - 1011,0
00:00 wind Windy and Partly Cloudy 6° 1° 0.02 mm 16% 13-19 m/s SE SE - 1010,5
01:00 wind Windy and Partly Cloudy 6° 1° 0.04 mm 18% 14-20 m/s West West - 1010,2
02:00 wind Windy and Partly Cloudy 6° -0° 0.09 mm 18% 14-21 m/s SW SW - 1010,3
03:00 wind Windy and Mostly Cloudy 5° -1° 0.16 mm 18% 14-20 m/s NNE NNE - 1010,3
04:00 wind Windy and Overcast 4° -2° 0.18 mm 19% 13-20 m/s WNW WNW - 1010,6
05:00 wind Windy and Mostly Cloudy 4° -3° 0.1 mm 16% 13-20 m/s WNW WNW - 1011,1
06:00 wind Windy and Mostly Cloudy 3° -4° 0.02 mm 8% 13-20 m/s WNW WNW - 1011,8
07:00 wind Windy and Partly Cloudy 3° -4° 0.01 mm 3% 12-19 m/s WNW WNW - 1012,5
08:00 wind Windy and Partly Cloudy 3° -3° 0.03 mm 9% 12-19 m/s NW NW - 1013,0
09:00 wind Windy and Partly Cloudy 4° -2° 0.13 mm 13% 12-18 m/s NW NW - 1013,5
10:00 wind Windy and Partly Cloudy 5° -1° 0.2 mm 17% 12-17 m/s NW NW - 1014,1
11:00 wind Windy and Partly Cloudy 5° -0° 0.12 mm 10% 12-17 m/s NW NW - 1014,9
Powered by:   darksky logo